VIV321 MMGL-MMUN

Flight info

Callsign VIV321
Flight time N/A
Altitude 39000
Route FEISE1B FEISE J25 SLP UT147 TMN DCT RAULS UT23 LIDAM DCT PERGO DCT XUDUN XUDUN1A
Aircraft A20N/M-SDE2E3FGHIRWXY/LB1

Departure

Time 2026-05-01 14:13
Airport Guadalajara International Airport (MMGL)

Arrival

Time N/A
Airport Cancún International Airport (MMUN)
Time Latitude Longitude Altitude Speed Heading
2026-05-01 13:43 20.52417 -103.30027 5029 ft 0 kts 19°
2026-05-01 14:00 20.52416 -103.30027 5029 ft 1 kts 19°
2026-05-01 14:01 20.52394 -103.30036 5029 ft 4 kts 19°
2026-05-01 14:01 20.52374 -103.30043 5029 ft 4 kts 19°
2026-05-01 14:01 20.52358 -103.30044 5029 ft 4 kts 92°
2026-05-01 14:01 20.52364 -103.30067 5027 ft 4 kts 118°
2026-05-01 14:02 20.52368 -103.30076 5029 ft 0 kts 110°
2026-05-01 14:04 20.52367 -103.30072 5029 ft 2 kts 110°
2026-05-01 14:05 20.52359 -103.30048 5029 ft 5 kts 109°
2026-05-01 14:05 20.52330 -103.30016 5029 ft 7 kts 135°
2026-05-01 14:05 20.52301 -103.29961 5026 ft 10 kts 118°
2026-05-01 14:05 20.52269 -103.29886 5029 ft 12 kts 112°
2026-05-01 14:06 20.52233 -103.29793 5025 ft 14 kts 112°
2026-05-01 14:06 20.52185 -103.29767 5029 ft 8 kts 180°
2026-05-01 14:06 20.52146 -103.29778 5029 ft 1 kts 200°
2026-05-01 14:06 20.52131 -103.29785 5029 ft 4 kts 204°
2026-05-01 14:07 20.52096 -103.29802 5027 ft 7 kts 202°
2026-05-01 14:07 20.52065 -103.29785 5025 ft 6 kts 134°
2026-05-01 14:07 20.52042 -103.29736 5027 ft 9 kts 113°
2026-05-01 14:08 20.51977 -103.29583 5026 ft 14 kts 116°
2026-05-01 14:08 20.51924 -103.29492 5027 ft 15 kts 128°
2026-05-01 14:08 20.51851 -103.29399 5028 ft 17 kts 129°
2026-05-01 14:08 20.51777 -103.29299 5025 ft 18 kts 128°
2026-05-01 14:09 20.51723 -103.29223 5029 ft 9 kts 125°
2026-05-01 14:09 20.51690 -103.29172 5029 ft 3 kts 133°
2026-05-01 14:09 20.51669 -103.29169 5029 ft 5 kts 173°
2026-05-01 14:09 20.51628 -103.29175 5026 ft 8 kts 195°
2026-05-01 14:10 20.51569 -103.29201 5026 ft 11 kts 207°
2026-05-01 14:10 20.51505 -103.29233 5028 ft 8 kts 202°
2026-05-01 14:10 20.51458 -103.29254 5027 ft 6 kts 202°
2026-05-01 14:10 20.51424 -103.29282 5027 ft 6 kts 245°
2026-05-01 14:11 20.51432 -103.29325 5024 ft 3 kts 296°
2026-05-01 14:11 20.51433 -103.29327 5027 ft 1 kts 296°
2026-05-01 14:12 20.51434 -103.29329 5027 ft 0 kts 296°
2026-05-01 14:12 20.51434 -103.29330 5027 ft 1 kts 296°
2026-05-01 14:12 20.51440 -103.29341 5027 ft 3 kts 296°
2026-05-01 14:12 20.51517 -103.29528 5028 ft 62 kts 292°
2026-05-01 14:13 20.51777 -103.30166 5029 ft 123 kts 293°
2026-05-01 14:13 20.52045 -103.30790 5027 ft 154 kts 294°
2026-05-01 14:13 20.52678 -103.32265 5671 ft 162 kts 294°
2026-05-01 14:13 20.53169 -103.33362 6242 ft 166 kts 295°
2026-05-01 14:14 20.53685 -103.34482 6753 ft 173 kts 295°
2026-05-01 14:14 20.54222 -103.35709 7064 ft 192 kts 294°
2026-05-01 14:14 20.54795 -103.37076 7350 ft 212 kts 293°
2026-05-01 14:14 20.55408 -103.38572 7662 ft 226 kts 293°
2026-05-01 14:15 20.56033 -103.40110 8233 ft 225 kts 293°
2026-05-01 14:15 20.56657 -103.41638 8827 ft 226 kts 293°
2026-05-01 14:15 20.57287 -103.43183 9458 ft 230 kts 293°
2026-05-01 14:15 20.57939 -103.44782 9982 ft 238 kts 293°
2026-05-01 14:16 20.58624 -103.46458 10409 ft 256 kts 293°
2026-05-01 14:16 20.59495 -103.48129 11041 ft 261 kts 311°
2026-05-01 14:16 20.60961 -103.49265 11766 ft 265 kts 338°
2026-05-01 14:16 20.62787 -103.49551 12458 ft 271 kts
2026-05-01 14:17 20.64578 -103.48899 13089 ft 279 kts 32°
2026-05-01 14:17 20.65958 -103.47417 13648 ft 288 kts 59°
2026-05-01 14:17 20.66614 -103.45422 14230 ft 294 kts 80°
2026-05-01 14:17 20.67215 -103.43257 14436 ft 315 kts 65°
2026-05-01 14:18 20.68235 -103.41108 14637 ft 335 kts 61°
2026-05-01 14:18 20.69375 -103.38856 14821 ft 355 kts 62°
2026-05-01 14:18 20.70531 -103.36447 15017 ft 374 kts 63°
2026-05-01 14:18 20.71310 -103.34733 15213 ft 383 kts 64°
2026-05-01 14:19 20.72808 -103.31292 15970 ft 389 kts 65°
2026-05-01 14:19 20.73936 -103.28646 16548 ft 394 kts 65°
2026-05-01 14:19 20.75070 -103.25972 17155 ft 397 kts 65°
2026-05-01 14:19 20.76214 -103.23271 17719 ft 401 kts 65°
2026-05-01 14:20 20.77369 -103.20541 18263 ft 404 kts 65°
2026-05-01 14:20 20.79714 -103.15006 19305 ft 412 kts 65°
2026-05-01 14:20 20.80900 -103.12205 19803 ft 416 kts 65°
2026-05-01 14:21 20.82097 -103.09376 20308 ft 420 kts 65°
2026-05-01 14:21 20.83292 -103.06553 20780 ft 423 kts 65°
2026-05-01 14:21 20.84525 -103.03639 21267 ft 427 kts 65°
2026-05-01 14:22 20.86974 -102.97840 22159 ft 434 kts 65°
2026-05-01 14:22 20.88218 -102.94890 22577 ft 438 kts 65°
2026-05-01 14:22 20.89474 -102.91913 23061 ft 441 kts 65°
2026-05-01 14:22 20.90737 -102.88914 23466 ft 444 kts 65°
2026-05-01 14:23 20.92009 -102.85894 23847 ft 447 kts 65°
2026-05-01 14:23 20.93292 -102.82847 24242 ft 450 kts 65°
2026-05-01 14:23 20.94582 -102.79781 24668 ft 453 kts 65°
2026-05-01 14:23 20.95879 -102.76699 25034 ft 456 kts 65°
2026-05-01 14:24 20.97186 -102.73588 25409 ft 459 kts 65°
2026-05-01 14:24 20.98497 -102.70468 25815 ft 461 kts 65°
2026-05-01 14:24 20.99891 -102.67377 26167 ft 463 kts 59°
2026-05-01 14:24 21.01631 -102.64474 26497 ft 464 kts 52°
2026-05-01 14:25 21.03638 -102.61742 26833 ft 467 kts 50°
2026-05-01 14:25 21.05653 -102.59012 27179 ft 469 kts 50°
2026-05-01 14:25 21.07675 -102.56259 27513 ft 471 kts 50°
2026-05-01 14:25 21.09702 -102.53493 27843 ft 473 kts 50°
2026-05-01 14:26 21.11741 -102.50711 28142 ft 476 kts 51°
2026-05-01 14:26 21.15850 -102.45102 28700 ft 482 kts 51°
2026-05-01 14:26 21.17921 -102.42271 29012 ft 484 kts 51°
2026-05-01 14:27 21.20002 -102.39429 29316 ft 485 kts 51°
2026-05-01 14:27 21.22087 -102.36578 29608 ft 488 kts 51°
2026-05-01 14:27 21.24182 -102.33712 29899 ft 490 kts 51°
2026-05-01 14:28 21.28378 -102.27964 30477 ft 494 kts 51°
2026-05-01 14:28 21.30497 -102.25060 30806 ft 496 kts 51°
2026-05-01 14:28 21.32631 -102.22135 31070 ft 498 kts 50°
2026-05-01 14:28 21.34772 -102.19200 31382 ft 500 kts 50°
2026-05-01 14:29 21.36910 -102.16264 31770 ft 500 kts 50°
2026-05-01 14:29 21.39052 -102.13322 32173 ft 498 kts 50°
2026-05-01 14:30 21.45413 -102.04569 33355 ft 494 kts 49°
2026-05-01 14:30 21.47527 -102.01656 33726 ft 492 kts 49°
2026-05-01 14:30 21.49626 -101.98764 34066 ft 491 kts 48°
2026-05-01 14:31 21.53813 -101.92994 34664 ft 490 kts 48°
2026-05-01 14:31 21.55909 -101.90104 34946 ft 489 kts 48°
2026-05-01 14:31 21.57998 -101.87224 35195 ft 489 kts 49°
2026-05-01 14:31 21.60093 -101.84332 35476 ft 488 kts 49°
2026-05-01 14:32 21.62176 -101.81456 35720 ft 488 kts 49°
2026-05-01 14:32 21.64260 -101.78575 35983 ft 488 kts 49°
2026-05-01 14:32 21.66342 -101.75697 36199 ft 488 kts 49°
2026-05-01 14:32 21.68427 -101.72814 36422 ft 488 kts 49°
2026-05-01 14:33 21.70507 -101.69936 36623 ft 488 kts 49°
2026-05-01 14:33 21.72583 -101.67062 36874 ft 486 kts 49°
2026-05-01 14:33 21.74652 -101.64197 37174 ft 483 kts 49°
2026-05-01 14:33 21.76707 -101.61349 37450 ft 481 kts 49°
2026-05-01 14:34 21.78747 -101.58521 37729 ft 478 kts 49°
2026-05-01 14:34 21.80790 -101.55689 37893 ft 478 kts 49°
2026-05-01 14:34 21.82828 -101.52862 38039 ft 478 kts 49°
2026-05-01 14:34 21.84841 -101.50066 38182 ft 478 kts 50°
2026-05-01 14:35 21.86876 -101.47236 38310 ft 479 kts 50°
2026-05-01 14:35 21.88908 -101.44406 38472 ft 478 kts 50°
2026-05-01 14:35 21.90945 -101.41569 38598 ft 478 kts 50°
2026-05-01 14:35 21.92980 -101.38736 38727 ft 478 kts 50°
2026-05-01 14:36 21.95040 -101.35867 38848 ft 478 kts 50°
2026-05-01 14:36 21.97068 -101.33039 38983 ft 477 kts 50°
2026-05-01 14:36 21.99072 -101.30243 39109 ft 477 kts 50°
2026-05-01 14:37 22.03137 -101.24571 39184 ft 480 kts 49°
2026-05-01 14:37 22.07216 -101.18872 39174 ft 479 kts 49°
2026-05-01 14:38 22.11283 -101.13185 39173 ft 479 kts 49°
2026-05-01 14:38 22.15354 -101.07483 39174 ft 480 kts 49°
2026-05-01 14:39 22.19417 -101.01788 39172 ft 479 kts 49°
2026-05-01 14:39 22.22602 -100.96895 39167 ft 481 kts 60°
2026-05-01 14:39 22.24251 -100.92460 39157 ft 483 kts 74°
2026-05-01 14:40 22.24857 -100.88895 39148 ft 483 kts 85°
2026-05-01 14:40 22.24889 -100.85269 39173 ft 484 kts 96°
2026-05-01 14:40 22.24535 -100.81652 39174 ft 487 kts 96°
2026-05-01 14:41 22.23825 -100.74365 39174 ft 488 kts 96°
2026-05-01 14:41 22.23234 -100.68272 39173 ft 487 kts 96°
2026-05-01 14:42 22.22525 -100.60999 39174 ft 487 kts 96°
2026-05-01 14:42 22.21811 -100.53738 39171 ft 486 kts 96°
2026-05-01 14:43 22.21099 -100.46519 39164 ft 486 kts 96°
2026-05-01 14:43 22.20377 -100.39260 39164 ft 487 kts 96°
2026-05-01 14:44 22.19653 -100.32000 39159 ft 487 kts 96°
2026-05-01 14:44 22.18559 -100.21103 39165 ft 487 kts 96°
2026-05-01 14:45 22.17460 -100.10213 39155 ft 487 kts 96°
2026-05-01 14:46 22.16723 -100.02956 39144 ft 486 kts 96°
2026-05-01 14:46 22.15614 -99.92084 39130 ft 486 kts 96°
2026-05-01 14:47 22.14876 -99.84872 39131 ft 486 kts 96°
2026-05-01 14:48 22.13757 -99.74009 39085 ft 486 kts 96°
2026-05-01 14:48 22.12629 -99.63142 39100 ft 485 kts 96°
2026-05-01 14:49 22.11117 -99.48671 39065 ft 486 kts 96°
2026-05-01 14:50 22.09590 -99.34191 39031 ft 486 kts 96°
2026-05-01 14:51 22.08440 -99.23337 39017 ft 486 kts 96°
2026-05-01 14:52 22.07279 -99.12483 38997 ft 486 kts 96°
2026-05-01 14:53 22.06109 -99.01625 38979 ft 486 kts 96°
2026-05-01 14:53 22.05326 -98.94380 38964 ft 487 kts 96°
2026-05-01 14:54 22.04544 -98.87177 38876 ft 486 kts 96°
2026-05-01 14:54 22.03965 -98.79930 38869 ft 485 kts 89°
2026-05-01 14:55 22.04312 -98.72679 38868 ft 484 kts 85°
2026-05-01 14:55 22.04725 -98.65441 38860 ft 484 kts 85°
2026-05-01 14:56 22.05129 -98.58210 38850 ft 483 kts 85°
2026-05-01 14:56 22.05531 -98.50966 38845 ft 483 kts 85°
2026-05-01 14:57 22.05929 -98.43741 38845 ft 483 kts 85°
2026-05-01 14:57 22.06524 -98.32906 38831 ft 483 kts 85°
2026-05-01 14:58 22.06916 -98.25681 38827 ft 482 kts 85°
2026-05-01 14:58 22.07298 -98.18545 38825 ft 482 kts 85°
2026-05-01 14:59 22.07681 -98.11341 38814 ft 481 kts 85°
2026-05-01 14:59 22.08061 -98.04139 38811 ft 481 kts 85°
2026-05-01 15:00 22.08623 -97.93391 38809 ft 481 kts 85°
2026-05-01 15:01 22.08993 -97.86203 38805 ft 480 kts 85°
2026-05-01 15:01 22.09361 -97.79012 38805 ft 480 kts 85°
2026-05-01 15:02 22.09729 -97.71821 38804 ft 480 kts 85°
2026-05-01 15:02 22.10091 -97.64639 38804 ft 480 kts 85°
2026-05-01 15:03 22.10452 -97.57443 38799 ft 480 kts 85°
2026-05-01 15:03 22.10810 -97.50248 38803 ft 481 kts 85°
2026-05-01 15:04 22.11161 -97.43045 38805 ft 481 kts 86°
2026-05-01 15:04 22.11509 -97.35835 38809 ft 482 kts 86°
2026-05-01 15:05 22.11858 -97.28616 38813 ft 482 kts 85°
2026-05-01 15:05 22.12203 -97.21386 38816 ft 483 kts 86°
2026-05-01 15:06 22.12543 -97.14201 38821 ft 483 kts 86°
2026-05-01 15:06 22.12882 -97.06969 38822 ft 483 kts 86°
2026-05-01 15:07 22.13220 -96.99723 38822 ft 483 kts 86°
2026-05-01 15:07 22.13554 -96.92485 38813 ft 482 kts 86°
2026-05-01 15:08 22.13882 -96.85284 38814 ft 481 kts 86°
2026-05-01 15:08 22.14207 -96.78082 38814 ft 481 kts 86°
2026-05-01 15:09 22.14529 -96.70857 38813 ft 481 kts 86°
2026-05-01 15:09 22.14845 -96.63711 38816 ft 480 kts 86°
2026-05-01 15:10 22.15156 -96.56521 38803 ft 478 kts 87°
2026-05-01 15:10 22.14405 -96.45766 38811 ft 479 kts 96°
2026-05-01 15:11 22.13247 -96.35073 38812 ft 480 kts 96°
2026-05-01 15:12 22.12468 -96.27916 38814 ft 480 kts 96°
2026-05-01 15:12 22.11292 -96.17200 38813 ft 479 kts 96°
2026-05-01 15:14 22.09324 -95.99438 38790 ft 475 kts 96°
2026-05-01 15:14 22.08130 -95.88750 38813 ft 480 kts 96°
2026-05-01 15:15 22.06527 -95.74484 38813 ft 479 kts 96°
2026-05-01 15:16 22.04907 -95.60171 38824 ft 482 kts 96°
2026-05-01 15:18 22.02865 -95.42350 38815 ft 480 kts 96°
2026-05-01 15:19 22.01218 -95.28052 38813 ft 481 kts 96°
2026-05-01 15:19 21.99970 -95.17318 38823 ft 481 kts 96°
2026-05-01 15:20 21.98720 -95.06643 38822 ft 476 kts 96°
2026-05-01 15:21 21.97889 -94.99549 38823 ft 477 kts 96°
2026-05-01 15:21 21.97052 -94.92461 38823 ft 477 kts 96°
2026-05-01 15:22 21.95803 -94.81875 38823 ft 477 kts 96°
2026-05-01 15:22 21.94968 -94.74793 38824 ft 477 kts 96°
2026-05-01 15:23 21.94128 -94.67704 38825 ft 477 kts 96°
2026-05-01 15:23 21.93282 -94.60621 38819 ft 477 kts 96°
2026-05-01 15:24 21.92435 -94.53543 38829 ft 477 kts 96°
2026-05-01 15:24 21.91583 -94.46461 38839 ft 477 kts 96°
2026-05-01 15:25 21.90729 -94.39376 38841 ft 477 kts 96°
2026-05-01 15:25 21.89871 -94.32285 38842 ft 477 kts 96°
2026-05-01 15:26 21.89011 -94.25208 38836 ft 477 kts 96°
2026-05-01 15:26 21.88293 -94.19308 38838 ft 478 kts 96°
2026-05-01 15:27 21.87423 -94.12209 38842 ft 478 kts 96°
2026-05-01 15:28 21.86113 -94.01560 38844 ft 478 kts 96°
2026-05-01 15:28 21.85239 -93.94464 38845 ft 478 kts 96°
2026-05-01 15:29 21.83918 -93.83810 38847 ft 479 kts 96°
2026-05-01 15:30 21.82144 -93.69608 38848 ft 479 kts 96°
2026-05-01 15:31 21.79469 -93.48363 38851 ft 477 kts 96°
2026-05-01 15:32 21.77674 -93.34222 38856 ft 477 kts 96°
2026-05-01 15:34 21.74967 -93.13089 38849 ft 474 kts 96°